Latest Weather Observations for Yamba

IDN60801

Issued at 10:33 am EDT Sunday 21 December 2014 (issued every 30 minutes, with the page automatically refreshed every 10 minutes)

About weather observations | Map of weather stations | Latest weather observations for NSW | Other Formats
Station Details ID: 058012 Name: YAMBA PILOT STATION Lat: -29.43 Lon: 153.36 Height: 27.4 m
Data from the previous 72 hours. | See also: Recent months at Yamba
Date/Time
EDT
Temp
°C
App
Temp
°C
Dew
Point
Rel
Hum
%
Delta-T
°C
Wind Press
QNH
hPa
Press
MSL
hPa
Rain
since 9 am
mm
Dir
 
Spd
km/h
Gust
km/h
Spd
kts
Gust
kts
21/10:30am 23.1 25.0 18.6 76 2.8 SSW 6 7 3 4 1019.0 - 0.0
21/10:00am 22.5 24.5 19.9 85 1.7 S 9 13 5 7 1018.9 - 0.0
21/09:30am 23.0 25.3 19.4 80 2.3 WSW 6 7 3 4 1018.9 - 0.0
21/09:00am 23.3 25.2 19.7 80 2.3 W 9 11 5 6 1018.8 1018.6 0.0
21/08:30am 23.8 26.2 19.7 78 2.6 NW 6 9 3 5 1018.7 - 0.0
21/08:00am 23.6 25.6 18.7 74 3.1 NNE 6 9 3 5 1018.5 - 0.0
21/07:30am 23.2 25.5 19.4 79 2.4 NNW 6 13 3 7 1018.0 - 0.0
21/07:00am 23.1 25.1 18.8 77 2.7 N 6 11 3 6 1017.8 - 0.0
21/06:30am 22.7 24.3 18.3 76 2.8 NNE 7 13 4 7 1017.3 - 0.0
21/06:00am 22.7 24.4 18.5 77 2.6 NNE 7 11 4 6 1017.0 1016.8 0.0
21/05:30am 22.7 24.3 18.3 76 2.8 NNE 7 13 4 7 1016.9 - 0.0
21/05:00am 22.7 24.1 17.8 74 3.0 NNE 7 13 4 7 1016.6 - 0.0
21/04:30am 22.7 23.7 17.8 74 3.0 NNE 9 13 5 7 1016.5 - 0.0
21/04:00am 22.7 23.7 17.8 74 3.0 ENE 9 19 5 10 1016.5 - 0.0
21/03:30am 22.7 23.3 17.6 73 3.2 ENE 11 17 6 9 1016.5 - 0.0
21/03:00am 22.8 23.9 18.1 75 2.9 ENE 9 15 5 8 1016.6 1016.4 0.0
21/02:30am 22.8 23.9 17.9 74 3.1 NE 9 17 5 9 1017.1 - 0.0
21/02:00am 22.8 23.5 17.9 74 3.1 ENE 11 17 6 9 1017.3 - 0.0
21/01:30am 22.7 23.0 17.8 74 3.0 ENE 13 19 7 10 1017.5 - 0.0
21/01:00am 22.8 23.7 18.3 76 2.8 ENE 11 17 6 9 1017.8 - 0.0
21/12:30am 22.7 23.3 18.5 77 2.6 E 13 19 7 10 1018.0 - 0.0
21/12:00am 22.8 23.2 18.1 75 2.9 E 13 20 7 11 1018.2 1018.0 0.0
 
Date/Time
EDT
Temp
°C
App
Temp
°C
Dew
Point
Rel
Hum
%
Delta-T
°C
Wind Press
QNH
hPa
Press
MSL
hPa
Rain
since 9 am
mm
Dir
 
Spd
km/h
Gust
km/h
Spd
kts
Gust
kts
20/11:30pm 23.1 23.5 18.2 74 3.1 ENE 13 22 7 12 1018.2 - 0.0
20/11:00pm 23.1 23.5 18.2 74 3.1 ENE 13 20 7 11 1018.3 - 0.0
20/10:30pm 23.1 23.4 18.0 73 3.2 ENE 13 20 7 11 1018.2 - 0.0
20/10:00pm 23.1 23.5 18.2 74 3.1 E 13 17 7 9 1017.9 - 0.0
20/09:30pm 23.2 23.8 18.5 75 3.0 E 13 20 7 11 1017.5 - 0.0
20/09:00pm 23.2 23.7 18.3 74 3.1 E 13 20 7 11 1017.2 1017.0 0.0
20/08:30pm 23.2 23.4 18.5 75 3.0 E 15 24 8 13 1016.8 - 0.0
20/08:00pm 23.3 23.6 18.8 76 2.9 E 15 20 8 11 1016.3 - 0.0
20/07:30pm 23.3 23.5 18.6 75 3.0 E 15 22 8 12 1016.0 - 0.0
20/07:00pm 23.4 23.5 18.3 73 3.2 E 15 24 8 13 1015.8 - 0.0
20/06:30pm 23.8 24.2 18.2 71 3.5 E 13 20 7 11 1015.4 - 0.0
20/06:00pm 23.9 24.3 18.1 70 3.6 E 13 20 7 11 1015.1 1014.8 0.0
20/05:30pm 24.0 24.6 18.6 72 3.4 E 13 20 7 11 1014.8 - 0.0
20/05:00pm 24.4 24.9 18.3 69 3.8 E 13 17 7 9 1014.8 - 0.0
20/04:30pm 25.1 25.5 19.0 69 3.9 E 15 20 8 11 1014.7 - 0.0
20/04:00pm 25.3 25.9 19.4 70 3.8 E 15 26 8 14 1014.9 - 0.0
20/03:30pm 25.3 26.0 19.7 71 3.6 E 15 20 8 11 1015.4 - 0.0
20/03:00pm 24.8 24.7 19.6 73 3.3 E 19 28 10 15 1015.7 1015.5 0.0
20/02:30pm 24.9 24.7 19.7 73 3.4 ESE 20 26 11 14 1015.8 - 0.0
20/02:00pm 25.6 25.6 19.7 70 3.8 ESE 19 24 10 13 1016.1 - 0.0
20/01:30pm 25.9 26.4 20.0 70 3.8 ESE 17 20 9 11 1016.4 - 0.0
20/01:00pm 25.2 25.6 18.9 68 4.0 ESE 15 19 8 10 1016.6 - 0.0
20/12:30pm 25.7 26.8 19.6 69 3.9 ESE 13 19 7 10 1016.9 - 0.0
20/12:00pm 25.5 26.2 19.6 70 3.8 ESE 15 20 8 11 1017.2 1017.0 0.0
20/11:30am 24.4 24.4 19.0 72 3.4 ESE 17 22 9 12 1017.2 - 0.0
20/11:00am 24.1 23.7 19.0 73 3.2 SE 19 26 10 14 1017.1 - 0.0
20/10:30am 24.4 24.1 19.5 74 3.1 SE 20 26 11 14 1017.1 - 0.0
20/10:00am 24.0 23.5 19.9 78 2.6 SSE 22 28 12 15 1017.1 - 0.0
20/09:30am 23.5 23.6 20.0 81 2.3 SSE 19 26 10 14 1017.0 - 0.0
20/09:00am 22.9 23.9 19.5 81 2.2 SSE 13 20 7 11 1016.9 1016.7 0.0
20/08:30am 23.6 24.4 19.9 80 2.4 SSE 15 20 8 11 1016.7 - 0.0
20/08:00am 23.7 24.5 19.0 75 3.0 ESE 13 19 7 10 1016.5 - 0.0
20/07:30am 22.9 23.0 19.1 79 2.4 ESE 17 22 9 12 1016.0 - 0.0
20/07:00am 23.2 25.1 18.9 77 2.7 E 7 17 4 9 1015.6 - 0.0
20/06:30am 23.0 24.5 19.0 78 2.5 ESE 9 15 5 8 1015.3 - 0.0
20/06:00am 22.7 22.5 18.5 77 2.6 ESE 17 20 9 11 1015.1 1014.9 0.0
20/05:30am 22.8 22.5 18.3 76 2.8 ESE 17 24 9 13 1014.8 - 0.0
20/05:00am 22.8 21.9 18.1 75 2.9 ESE 20 26 11 14 1014.6 - 0.0
20/04:30am 22.8 21.2 17.5 72 3.3 SE 22 28 12 15 1014.4 - 0.0
20/04:00am 23.0 21.6 18.7 77 2.7 SE 24 30 13 16 1014.1 - 0.0
20/03:30am 22.8 22.2 18.8 78 2.5 SE 20 26 11 14 1014.2 - 0.0
20/03:00am 22.7 21.8 18.3 76 2.8 SE 20 26 11 14 1014.4 1014.2 0.0
20/02:30am 22.7 21.6 18.7 78 2.5 SE 22 28 12 15 1014.6 - 0.0
20/02:00am 22.9 21.2 18.2 75 2.9 SE 24 30 13 16 1014.7 - 0.0
20/01:30am 23.1 21.8 18.2 74 3.1 SE 22 28 12 15 1015.1 - 0.0
20/01:00am 23.2 22.5 18.7 76 2.8 SE 20 28 11 15 1015.3 - 0.0
20/12:30am 23.1 22.5 18.8 77 2.7 SE 20 28 11 15 1015.5 - 0.0
20/12:00am 23.4 22.5 19.1 77 2.7 SE 22 32 12 17 1015.6 1015.4 0.0
 
Date/Time
EDT
Temp
°C
App
Temp
°C
Dew
Point
Rel
Hum
%
Delta-T
°C
Wind Press
QNH
hPa
Press
MSL
hPa
Rain
since 9 am
mm
Dir
 
Spd
km/h
Gust
km/h
Spd
kts
Gust
kts
19/11:30pm 23.5 21.1 19.0 76 2.9 SE 30 35 16 19 1015.5 - 0.0
19/11:00pm 23.3 20.8 18.8 76 2.9 SE 30 37 16 20 1015.4 - 0.0
19/10:30pm 23.5 21.8 19.0 76 2.9 SE 26 35 14 19 1015.4 - 0.0
19/10:00pm 23.5 22.0 19.4 78 2.6 SE 26 33 14 18 1015.2 - 0.0
19/09:30pm 23.5 21.6 19.4 78 2.6 SE 28 33 15 18 1014.7 - 0.0
19/09:00pm 23.5 21.1 19.2 77 2.7 SE 30 37 16 20 1014.4 1014.2 0.0
19/08:30pm 23.6 21.9 19.9 80 2.4 SE 28 35 15 19 1014.0 - 0.0
19/08:00pm 23.6 20.9 19.7 79 2.5 SE 33 43 18 23 1013.4 - 0.0
19/07:30pm 23.8 22.2 20.1 80 2.4 SE 28 35 15 19 1012.9 - 0.0
19/07:00pm 24.0 21.7 20.1 79 2.5 SE 32 39 17 21 1012.3 - 0.0
19/06:30pm 24.1 22.2 20.2 79 2.5 SE 30 37 16 20 1011.7 - 0.0
19/06:00pm 25.1 23.9 20.8 77 2.8 SE 28 39 15 21 1010.9 1010.8 0.0
19/05:30pm 25.3 23.9 20.5 75 3.1 SE 28 37 15 20 1010.6 - 0.0
19/05:00pm 25.5 23.4 20.5 74 3.3 SE 32 43 17 23 1010.0 - 0.0
19/04:30pm 25.6 23.1 20.2 72 3.5 SE 33 43 18 23 1010.0 - 0.0
19/04:00pm 26.0 23.9 21.0 74 3.3 SE 33 44 18 24 1009.9 - 0.0
19/03:30pm 26.0 23.2 21.0 74 3.3 SE 37 46 20 25 1009.6 - 0.0
19/03:00pm 26.2 23.0 21.0 73 3.4 SE 39 48 21 26 1009.5 1009.4 0.0
19/02:30pm 26.7 23.6 21.2 72 3.6 SE 39 48 21 26 1009.5 - 0.0
19/02:21pm 27.2 25.2 21.2 69 4.0 SE 33 46 18 25 1009.6 - 0.0
19/02:20pm 27.2 25.2 21.2 69 4.0 SE 33 46 18 25 1009.6 - 0.0
19/02:00pm 27.5 28.9 22.9 76 3.1 ESE 20 28 11 15 1009.7 - 0.0
19/01:36pm 28.2 28.0 22.7 72 3.7 ESE 28 35 15 19 1009.2 - 0.0
19/01:30pm 29.6 34.0 23.8 71 4.0 E 7 15 4 8 1008.7 - 0.0
19/01:00pm 28.8 30.9 21.0 62 5.2 ENE 11 17 6 9 1008.9 - 0.0
19/12:30pm 30.4 32.8 20.0 53 6.9 ENE 7 13 4 7 1009.4 - 0.0
19/12:00pm 30.2 32.0 19.6 53 7.0 E 9 17 5 9 1009.6 1009.5 0.0
19/11:30am 30.5 31.6 18.9 50 7.5 W 11 19 6 10 1009.6 - 0.0
19/11:00am 29.9 31.1 18.3 49 7.5 W 9 15 5 8 1009.7 - 0.0
19/10:30am 28.7 29.5 19.1 56 6.2 W 13 22 7 12 1009.9 - 0.0
19/10:00am 27.9 29.6 20.2 63 5.1 W 11 19 6 10 1009.9 - 0.0
19/09:30am 26.3 27.2 19.2 65 4.6 W 13 20 7 11 1009.8 - 0.0
19/09:00am 25.5 28.1 21.2 77 2.8 NW 9 17 5 9 1010.0 1009.9 1.6
19/08:30am 23.9 26.3 20.8 83 2.0 NW 9 17 5 9 1009.9 - 1.6
19/08:00am 23.0 25.9 21.1 89 1.2 NNW 7 11 4 6 1009.8 - 1.6
19/07:30am 22.1 24.2 20.9 93 0.8 NW 11 17 6 9 1009.7 - 1.6
19/07:00am 21.6 23.2 20.8 95 0.5 NW 13 19 7 10 1009.5 - 1.6
19/06:30am 20.8 23.4 20.5 98 0.2 NNW 7 11 4 6 1009.3 - 1.6
19/06:00am 20.8 23.0 20.3 97 0.3 NNW 9 15 5 8 1008.9 1008.9 1.6
19/05:30am 21.4 23.6 21.1 98 0.2 NNW 11 17 6 9 1008.7 - 1.6
19/05:00am 21.5 23.1 20.8 96 0.5 NNW 13 19 7 10 1008.7 - 1.6
19/04:30am 21.6 23.3 20.9 96 0.5 NNW 13 19 7 10 1009.0 - 1.6
19/04:00am 21.8 23.8 21.5 98 0.2 NW 13 20 7 11 1008.9 - 1.6
19/03:30am 22.0 23.8 21.8 99 0.1 NNW 15 22 8 12 1008.7 - 1.6
19/03:00am 22.2 24.2 22.2 100 0.0 NNW 15 24 8 13 1008.7 1008.7 1.6
19/02:30am 22.1 23.3 22.1 100 0.0 NNW 19 28 10 15 1009.0 - 1.6
19/02:00am 22.3 24.0 22.3 100 0.0 NNW 17 24 9 13 1009.5 - 1.6
19/01:30am 22.6 25.2 22.6 100 0.0 N 13 22 7 12 1010.0 - 1.6
19/01:00am 22.7 25.6 22.5 99 0.1 N 11 17 6 9 1010.2 - 1.6
19/12:30am 22.6 26.2 22.1 97 0.3 W 6 9 3 5 1011.4 - 1.6
19/12:00am 23.0 26.4 22.0 94 0.7 ENE 7 11 4 6 1011.7 1011.6 1.2
 
Date/Time
EDT
Temp
°C
App
Temp
°C
Dew
Point
Rel
Hum
%
Delta-T
°C
Wind Press
QNH
hPa
Press
MSL
hPa
Rain
since 9 am
mm
Dir
 
Spd
km/h
Gust
km/h
Spd
kts
Gust
kts
18/11:30pm 22.8 25.1 22.0 95 0.5 N 13 22 7 12 1010.1 - 0.6
18/11:00pm 22.8 25.9 22.1 96 0.5 N 9 17 5 9 1010.4 - 0.6
18/10:30pm 23.5 27.5 22.8 96 0.5 ENE 6 9 3 5 1010.4 - 0.6
18/10:00pm 23.6 27.5 22.9 96 0.5 E 7 9 4 5 1010.1 - 0.6
18/09:30pm 23.8 27.7 22.9 95 0.6 NE 7 11 4 6 1009.7 - 0.6
18/09:00pm 23.7 27.1 22.7 94 0.7 E 9 13 5 7 1009.7 1009.6 0.6
18/08:30pm 23.6 26.3 22.2 92 0.9 E 11 20 6 11 1009.2 - 0.6
18/08:00pm 23.4 25.1 21.7 90 1.1 E 15 22 8 12 1008.6 - 0.6
18/07:30pm 24.5 25.7 21.4 83 2.0 ESE 17 24 9 13 1008.7 - 0.6
18/07:00pm 24.8 27.1 21.3 81 2.3 NW 11 19 6 10 1008.3 - 0.6
18/06:30pm 24.9 26.2 21.6 82 2.2 WNW 17 28 9 15 1007.3 - 0.6
18/06:00pm 25.7 25.5 20.5 73 3.4 W 22 41 12 22 1006.7 1006.5 0.6
18/05:44pm 25.5 27.8 24.5 94 0.7 WNW 20 26 11 14 1006.8 - 0.6
18/05:40pm 25.2 28.3 24.2 94 0.7 NNW 15 24 8 13 1005.9 - 0.6
18/05:30pm 25.2 28.4 24.3 95 0.6 N 15 24 8 13 1004.8 - 0.6
18/05:00pm 25.4 28.8 24.0 92 1.0 N 13 20 7 11 1003.8 - 0.6
18/04:30pm 25.7 29.6 24.3 92 1.0 N 11 20 6 11 1003.8 - 0.6
18/04:00pm 26.3 29.6 23.8 86 1.7 N 13 20 7 11 1004.3 - 0.6
18/03:30pm 27.0 29.6 23.9 83 2.1 N 17 28 9 15 1004.3 - 0.6
18/03:00pm 27.8 30.7 24.4 82 2.4 NNE 17 26 9 14 1004.9 1004.9 0.6
18/02:58pm 27.7 30.4 24.1 81 2.5 NNE 17 26 9 14 1005.1 - 0.6
18/02:30pm 28.3 32.0 25.1 83 2.2 N 15 24 8 13 1006.1 - 0.6
18/02:00pm 28.3 32.7 26.3 89 1.4 NNE 15 20 8 11 1007.1 - 0.6
18/01:30pm 26.3 30.2 24.3 89 1.4 NE 11 20 6 11 1007.7 - 0.6
18/01:00pm 26.8 31.0 24.8 89 1.4 NE 11 17 6 9 1008.0 - 0.6
18/12:30pm 26.1 29.9 24.1 89 1.4 NE 11 17 6 9 1008.6 - 0.6
18/12:00pm 26.4 31.0 24.2 88 1.5 NE 7 11 4 6 1009.3 1009.2 0.6
18/11:30am 26.9 32.0 24.9 89 1.4 N 7 15 4 8 1009.7 - 0.6
18/11:00am 25.4 29.7 24.2 93 0.8 NNW 9 17 5 9 1009.5 - 0.6

Other Formats:

Comma delimited format used in spreadsheet applications
http://www.bom.gov.au/fwo/IDN60801/IDN60801.94589.axf

JavaScript Object Notation format (JSON) in row-major order
http://www.bom.gov.au/fwo/IDN60801/IDN60801.94589.json